Stündliche Wetter Labytnangi

Heute, 18 Mai, Dienstag

Zeit Temperatur Niederschläge Wind Luftdruck Luftfeuchtigkeit
00:00 -4°C° 0 mm 5 m/S 760 mmHg 81%
01:00 -4°C° 0 mm 4 m/S 761 mmHg 80%
02:00 -4°C° 0 mm 4 m/S 761 mmHg 78%
03:00 -4°C° 0 mm 4 m/S 761 mmHg 77%
04:00 -4°C° 0 mm 4 m/S 762 mmHg 74%
05:00 -3°C° 0 mm 4 m/S 762 mmHg 69%
06:00 -3°C° 0 mm 4 m/S 762 mmHg 63%
07:00 -2°C° 0 mm 4 m/S 762 mmHg 58%
08:00 -1°C° 0 mm 4 m/S 763 mmHg 54%
09:00 -1°C° 0 mm 4 m/S 763 mmHg 51%
10:00 0°C° 0 mm 4 m/S 763 mmHg 48%
11:00 0°C° 0 mm 4 m/S 764 mmHg 47%
12:00 +1°C° 0 mm 4 m/S 764 mmHg 46%
13:00 +1°C° 0 mm 4 m/S 764 mmHg 45%
14:00 +1°C° 0 mm 4 m/S 764 mmHg 46%
15:00 +1°C° 0 mm 4 m/S 765 mmHg 47%
16:00 +1°C° 0 mm 4 m/S 765 mmHg 48%
17:00 0°C° 0 mm 4 m/S 765 mmHg 50%
18:00 0°C° 0 mm 4 m/S 765 mmHg 51%
19:00 -1°C° 0 mm 4 m/S 765 mmHg 53%
20:00 -1°C° 0 mm 4 m/S 766 mmHg 57%
21:00 -1°C° 0 mm 3 m/S 766 mmHg 62%
22:00 -2°C° 0 mm 3 m/S 766 mmHg 66%
23:00 -2°C° 0 mm 3 m/S 766 mmHg 68%

Morgen, 19 Mai, Mittwoch

Zeit Temperatur Niederschläge Wind Luftdruck Luftfeuchtigkeit
00:00 -2°C° 0 mm 2 m/S 766 mmHg 70%
01:00 -3°C° 0 mm 2 m/S 766 mmHg 71%
02:00 -2°C° 0 mm 2 m/S 766 mmHg 71%
03:00 -2°C° 0 mm 2 m/S 766 mmHg 70%
04:00 0°C° 0 mm 1 m/S 766 mmHg 70%
05:00 -1°C° 0 mm 2 m/S 766 mmHg 67%
06:00 +1°C° 0 mm 2 m/S 766 mmHg 64%
07:00 +1°C° 0 mm 2 m/S 766 mmHg 62%
08:00 +1°C° 0 mm 3 m/S 766 mmHg 63%
09:00 +1°C° 0 mm 3 m/S 765 mmHg 65%
10:00 +2°C° 0 mm 3 m/S 765 mmHg 66%
11:00 +2°C° 0.3 mm 3 m/S 765 mmHg 76%
12:00 +1°C° 0.3 mm 3 m/S 764 mmHg 86%
13:00 +1°C° 0.3 mm 3 m/S 764 mmHg 96%
14:00 +1°C° 1.2 mm 3 m/S 763 mmHg 97%
15:00 +1°C° 1.2 mm 3 m/S 763 mmHg 97%
16:00 0°C° 1.2 mm 3 m/S 762 mmHg 98%
17:00 +1°C° 2.3 mm 3 m/S 761 mmHg 98%
18:00 0°C° 2.3 mm 4 m/S 760 mmHg 98%
19:00 0°C° 2.3 mm 4 m/S 759 mmHg 98%
20:00 +1°C° 2 mm 4 m/S 759 mmHg 98%
21:00 +1°C° 2 mm 4 m/S 758 mmHg 98%
22:00 +2°C° 2 mm 3 m/S 757 mmHg 98%
23:00 +2°C° 0.4 mm 3 m/S 756 mmHg 98%

übermorgen, 20 Mai, Donnerstag

Zeit Temperatur Niederschläge Wind Luftdruck Luftfeuchtigkeit
00:00 +3°C° 0.4 mm 3 m/S 756 mmHg 98%
01:00 +3°C° 0.4 mm 3 m/S 755 mmHg 98%
02:00 +4°C° 0 mm 2 m/S 755 mmHg 98%
03:00 +4°C° 0 mm 2 m/S 755 mmHg 98%
04:00 +5°C° 0 mm 1 m/S 755 mmHg 98%
05:00 +5°C° 0 mm 1 m/S 755 mmHg 98%
06:00 +5°C° 0 mm 1 m/S 755 mmHg 98%
07:00 +5°C° 0 mm 1 m/S 755 mmHg 98%
08:00 +6°C° 0 mm 1 m/S 755 mmHg 97%
09:00 +6°C° 0 mm 2 m/S 755 mmHg 96%
10:00 +7°C° 0 mm 2 m/S 755 mmHg 95%
11:00 +9°C° 0 mm 3 m/S 755 mmHg 90%
12:00 +11°C° 0 mm 4 m/S 755 mmHg 85%
13:00 +13°C° 0 mm 4 m/S 755 mmHg 79%
14:00 +13°C° 0 mm 4 m/S 755 mmHg 78%
15:00 +13°C° 0 mm 3 m/S 755 mmHg 77%
16:00 +13°C° 0 mm 3 m/S 755 mmHg 76%
17:00 +13°C° 0 mm 2 m/S 755 mmHg 78%
18:00 +13°C° 0 mm 1 m/S 755 mmHg 79%
19:00 +12°C° 0 mm 1 m/S 755 mmHg 80%
20:00 +12°C° 0.1 mm 1 m/S 755 mmHg 82%
21:00 +12°C° 0.1 mm 1 m/S 755 mmHg 84%
22:00 +11°C° 0.1 mm 1 m/S 754 mmHg 86%
23:00 +10°C° 0.1 mm 2 m/S 754 mmHg 86%

21 Mai, Freitag

Zeit Temperatur Niederschläge Wind Luftdruck Luftfeuchtigkeit
00:00 +12°C° 0.1 mm 2 m/S 753 mmHg 87%
01:00 +12°C° 0.1 mm 2 m/S 753 mmHg 87%
02:00 +13°C° 0 mm 2 m/S 753 mmHg 85%
03:00 +12°C° 0 mm 3 m/S 752 mmHg 83%
04:00 +13°C° 0 mm 3 m/S 752 mmHg 80%
05:00 +16°C° 0 mm 3 m/S 752 mmHg 74%
06:00 +18°C° 0 mm 3 m/S 752 mmHg 67%
07:00 +20°C° 0 mm 3 m/S 752 mmHg 60%
08:00 +21°C° 0 mm 3 m/S 752 mmHg 57%
09:00 +22°C° 0 mm 3 m/S 752 mmHg 53%
10:00 +25°C° 0 mm 3 m/S 752 mmHg 49%
11:00 +26°C° 0 mm 4 m/S 752 mmHg 45%
12:00 +27°C° 0 mm 5 m/S 752 mmHg 41%
13:00 +28°C° 0 mm 6 m/S 752 mmHg 38%
14:00 +28°C° 0 mm 6 m/S 752 mmHg 37%
15:00 +29°C° 0 mm 6 m/S 752 mmHg 36%
16:00 +29°C° 0 mm 6 m/S 752 mmHg 35%
17:00 +28°C° 0 mm 5 m/S 752 mmHg 38%
18:00 +27°C° 0 mm 4 m/S 752 mmHg 41%
19:00 +26°C° 0 mm 3 m/S 752 mmHg 44%
20:00 +25°C° 0 mm 3 m/S 752 mmHg 46%
21:00 +22°C° 0 mm 3 m/S 752 mmHg 49%
22:00 +21°C° 0 mm 3 m/S 752 mmHg 52%
23:00 +20°C° 0 mm 2 m/S 752 mmHg 52%

22 Mai, Samstag

Zeit Temperatur Niederschläge Wind Luftdruck Luftfeuchtigkeit
00:00 +19°C° 0 mm 2 m/S 752 mmHg 53%
01:00 +18°C° 0 mm 2 m/S 752 mmHg 53%
02:00 +18°C° 0 mm 2 m/S 752 mmHg 53%
03:00 +18°C° 0 mm 2 m/S 752 mmHg 53%
04:00 +19°C° 0 mm 1 m/S 752 mmHg 53%
05:00 +20°C° 0 mm 2 m/S 751 mmHg 50%
06:00 +21°C° 0 mm 2 m/S 751 mmHg 46%
07:00 +23°C° 0 mm 2 m/S 751 mmHg 42%
08:00 +25°C° 0 mm 4 m/S 750 mmHg 39%
09:00 +27°C° 0 mm 6 m/S 750 mmHg 35%
10:00 +28°C° 0 mm 7 m/S 750 mmHg 31%
11:00 +28°C° 0 mm 8 m/S 749 mmHg 30%
12:00 +29°C° 0 mm 9 m/S 749 mmHg 29%
13:00 +29°C° 0 mm 10 m/S 749 mmHg 28%
14:00 +29°C° 0 mm 9 m/S 749 mmHg 28%
15:00 +29°C° 0 mm 9 m/S 748 mmHg 29%
16:00 +29°C° 0 mm 8 m/S 748 mmHg 30%
17:00 +27°C° 0 mm 7 m/S 748 mmHg 36%
18:00 +25°C° 0 mm 5 m/S 748 mmHg 42%
19:00 +22°C° 0 mm 4 m/S 748 mmHg 48%
20:00 +21°C° 0.3 mm 4 m/S 748 mmHg 56%
21:00 +19°C° 0.3 mm 3 m/S 748 mmHg 63%
22:00 +18°C° 0.3 mm 3 m/S 748 mmHg 71%
23:00 +17°C° 0.1 mm 4 m/S 748 mmHg 71%

23 Mai, Sonntag

Zeit Temperatur Niederschläge Wind Luftdruck Luftfeuchtigkeit
00:00 +15°C° 0.1 mm 4 m/S 749 mmHg 72%
01:00 +14°C° 0.1 mm 5 m/S 749 mmHg 73%
02:00 +13°C° 0 mm 4 m/S 749 mmHg 74%
03:00 +13°C° 0 mm 3 m/S 750 mmHg 74%
04:00 +13°C° 0 mm 3 m/S 750 mmHg 75%
05:00 +14°C° 0 mm 4 m/S 750 mmHg 66%
06:00 +15°C° 0 mm 6 m/S 750 mmHg 56%
07:00 +16°C° 0 mm 7 m/S 750 mmHg 47%
08:00 +16°C° 0 mm 9 m/S 750 mmHg 45%
09:00 +16°C° 0 mm 10 m/S 751 mmHg 44%
10:00 +16°C° 0 mm 11 m/S 751 mmHg 43%
11:00 +14°C° 0 mm 11 m/S 752 mmHg 39%
12:00 +14°C° 0 mm 12 m/S 752 mmHg 36%
13:00 +13°C° 0 mm 12 m/S 753 mmHg 33%
14:00 +13°C° 0 mm 11 m/S 754 mmHg 32%
15:00 +13°C° 0 mm 10 m/S 755 mmHg 31%
16:00 +12°C° 0 mm 10 m/S 755 mmHg 31%
17:00 +12°C° 0 mm 8 m/S 756 mmHg 32%
18:00 +12°C° 0 mm 7 m/S 756 mmHg 33%
19:00 +11°C° 0 mm 6 m/S 756 mmHg 33%
20:00 +10°C° 0 mm 5 m/S 757 mmHg 37%
21:00 +10°C° 0 mm 4 m/S 757 mmHg 40%
22:00 +9°C° 0 mm 3 m/S 757 mmHg 43%
23:00 +9°C° 0 mm 2 m/S 757 mmHg 44%
Mehr zeigen

Wir brauchen deine Erlaubnis

Meteoprog und unser Service Anbieter werden persönliche Daten aufbewahren, so wie Cookies, Geräte Bezeichnung oder ähnliche Technologien von deinem Gerät und Prozess, so wie Persönliche Daten Inhalte und Werbungen, genauso wie social Media und den Verkehr zu analysieren.

  • Aufbewahrung und/oder Zugang zu deiner Geräte Informationen.

    Cookies, Geräte Bezeichnung oder andere Informationen, können aufbewahrt oder Zugang zu deinem Gerät erhalten, für den Grund, der oben angegeben wird.

  • Personalisierte Werbung und Inhalte, Messungen, Einblick in das Publikum und Produkt Entwicklung.

    Werbungen und Inhalte können personalisiert werden, basierend auf ein Profil. Mehr Daten können besser personalisierte Werbungen und Inhalte hinzufügen. Werbung und Inhalte können gezeigt und gemessen werden. Einblicke über das Publikum, welche die Werbung gesehen haben und den Inhalt, können abgeleitet werden. So wie Daten können genutzt werden, um es zu verbessern oder die Benutzer Erfahrung zu verbessern das System und die Software.

Wenn du “Ich stimme zu” klickst, erlaubst du uns, die Cookies zu benutzen die Geräte Bezeichnung, den Web oder ähnliche Technologien zu benutzen. Deine Settings, können in deinem Gerät bei deinem Browser geändert werden.

Für den bestimmten Zweck, berechtigten Interessen beruhen darauf, mehr als auf den Inhalt. Du kannst mehr darüber in unseren Privaten und Cookie Politik lesen.